Location: Novokuznetsk
(53.7500°N, 87.1000°E)
Time: 19:23:04
(UTC+06:00)

ISS - Pass Details

Date: 22 April 2026
Orbit: 414 x 424 km, 51.6° (Epoch: 18 May)

Event Time Altitude Azimuth Distance (km) Brightness Sun altitude
Exits shadow 03:17:04 - 168° (SSE) 1,658 -1.0 -13.2°
Reaches altitude 10° 03:18:13 10° 150° (SSE) 1,498 -1.1 -13.0°
Maximum altitude 03:18:52 10° 139° (SE) 1,474 -1.0 -13.0°
Drops below altitude 10° 03:19:31 10° 128° (SE) 1,501 -0.8 -12.9°
Sets 03:23:13 0° 86° (E) 2,375 1.0 -12.5°
